Location: Aldenham
(51.6667°N, 0.3500°W)
Time: 00:24:49
(UTC+00:00)

Cosmos 2227 Rocket - Pass Details

Date: 18 November 2025
Orbit: 839 x 842 km, 71.0° (Epoch: 13 December)

Event Time Altitude Azimuth Distance (km) Brightness Sun altitude
Rises 17:28:49 0° 303° (WNW) 3,402 6.0 -12.4°
Reaches altitude 10° 17:33:52 10° 342° (NNW) 2,468 4.7 -13.2°
Maximum altitude 17:34:59 11° 354° (N) 2,429 4.5 -13.3°
Drops below altitude 10° 17:36:07 10° 6° (N) 2,468 4.4 -13.5°
Enters shadow 17:38:30 - 27° (NNE) 2,785 4.5 -13.9°
